Content
SEND FEEDBACK

Daily
Averages
Monthly
Summary
Spain

PUERTO DEL ROSARIO, SPAIN


Home > Europe > Spain
Elevation: 98 feet     Latitude: 28 27N     Longitude: 013 52W

WEATHER
 
SELECT A DAY
Number of Records: 215,693;   Date Range: 7/1/96 - 7/20/14
 
SHARE

PRINT THIS DATA

[ ← Previous Day ]
WEATHER ALMANAC - JULY 3, 2013
[ Next Day → ]
[ °C ]   °F
Weather ElementAverageHighLow
Temperature69.9 °F73.4 °F (3:30 pm)66.2 °F (6:30 am)
Dewpoint61.6 °F64.4 °F (8:00 pm)59 °F (8:30 am)
Humidity75.1 %83 % (6:30 am)69 % (11:30 am)
Barometer30.05 in30.06 in (8:00 am)30.01 in (6:30 am)
Wind Speed14.1 mph19.6 mph (3:00 pm)
Weather ElementAverage
Visibility6.2 mi
Wind DirectionNE (43.2 °)

Weather ElementTotal
Precipitation---
Cooling Degree Days4.8 (Base 65)
Growing Degree Days19.8 (Base 50)
Averaged from 34 records on July 3, 2013
WEATHER CONDITIONS BREAKOUT
WIND DIRECTION BREAKOUT
WEATHER BY HOUR - JULY 3, 2013
[ °C ]   °F
Local TimeTemperatureDewpointHumidityBarometerVisibilityWind DirectionWind SpeedGust SpeedPrecipitationEventsConditions
6:30 AM66.2 °F60.8 °F83 %30.01 in6.2 miNNE (30°)17.3 mphScattered Clouds
7:00 AM66.2 °F60.8 °F83 %30.04 in6.2 miNNE (30°)16.1 mphScattered Clouds
7:30 AM66.2 °F60.8 °F83 %30.04 in6.2 miNE (40°)15.0 mphScattered Clouds
8:00 AM66.2 °F60.8 °F83 %30.06 in6.2 miNE (40°)10.4 mphScattered Clouds
8:30 AM66.2 °F59.0 °F78 %30.06 in6.2 miNNE (20°)10.4 mphScattered Clouds
9:00 AM68.0 °F59.0 °F73 %30.06 in6.2 miNNE (30°)12.7 mphScattered Clouds
9:30 AM68.0 °F59.0 °F73 %30.06 in6.2 miNNE (30°)12.7 mphScattered Clouds
10:00 AM68.0 °F59.0 °F73 %30.06 in6.2 miNNE (30°)12.7 mphScattered Clouds
10:30 AM69.8 °F60.8 °F73 %30.06 in6.2 miNE (40°)13.8 mphScattered Clouds
11:00 AM69.8 °F60.8 °F73 %30.06 in6.2 miNE (40°)12.7 mphPartly Cloudy
11:30 AM71.6 °F60.8 °F69 %30.06 in6.2 miNE (40°)10.4 mphPartly Cloudy
12:00 PM71.6 °F60.8 °F69 %30.06 in6.2 miENE (60°)12.7 mphPartly Cloudy
12:30 PM71.6 °F62.6 °F73 %30.06 in6.2 miNE (50°)12.7 mphPartly Cloudy
1:00 PM71.6 °F60.8 °F69 %30.06 in6.2 miNE (50°)11.5 mphPartly Cloudy
1:30 PM71.6 °F62.6 °F73 %30.06 in6.2 miNE (50°)12.7 mphPartly Cloudy
2:00 PM71.6 °F62.6 °F73 %30.06 in6.2 miNE (50°)13.8 mphPartly Cloudy
2:30 PM71.6 °F62.6 °F73 %30.06 in6.2 miNE (50°)15.0 mphPartly Cloudy
3:00 PM71.6 °F62.6 °F73 %30.04 in6.2 miNE (40°)19.6 mphPartly Cloudy
3:30 PM73.4 °F62.6 °F69 %30.04 in6.2 miNE (50°)17.3 mphPartly Cloudy
4:00 PM73.4 °F62.6 °F69 %30.04 in6.2 miENE (60°)15.0 mphPartly Cloudy
4:30 PM71.6 °F62.6 °F73 %30.04 in6.2 miENE (60°)13.8 mphPartly Cloudy
5:00 PM73.4 °F62.6 °F69 %30.04 in6.2 miENE (60°)17.3 mphPartly Cloudy
5:30 PM73.4 °F62.6 °F69 %30.04 in6.2 miNE (50°)17.3 mphPartly Cloudy
6:00 PM71.6 °F62.6 °F73 %30.04 in6.2 miNE (50°)17.3 mphPartly Cloudy
6:30 PM71.6 °F62.6 °F73 %30.04 in6.2 miNE (50°)16.1 mphPartly Cloudy
7:00 PM71.6 °F62.6 °F73 %30.04 in6.2 miNE (50°)12.7 mphPartly Cloudy
7:30 PM69.8 °F62.6 °F78 %30.04 in6.2 miNE (50°)15.0 mphPartly Cloudy
8:00 PM69.8 °F64.4 °F83 %30.04 in6.2 miNE (50°)13.8 mphPartly Cloudy
8:30 PM69.8 °F62.6 °F78 %30.04 in6.2 miNE (50°)16.1 mphPartly Cloudy
9:00 PM68.0 °F62.6 °F83 %30.04 in6.2 miNE (40°)13.8 mphPartly Cloudy
9:30 PM68.0 °F62.6 °F83 %30.04 in6.2 miNE (50°)16.1 mphPartly Cloudy
10:00 PM68.0 °F60.8 °F78 %30.04 in6.2 miNNE (30°)12.7 mphPartly Cloudy
10:30 PM68.0 °F60.8 °F78 %30.06 in6.2 miNNE (30°)12.7 mphPartly Cloudy
11:00 PM68.0 °F60.8 °F78 %30.06 in6.2 miNNE (20°)11.5 mphPartly Cloudy
Hourly data recorded from GCFV, located miles away from Puerto del Rosario, Spain







STORIES FROM OUR PARTNERS